EW5171 Weather Reports


time (UTC)temp
F
wind
direction
speed
knots
gust
knots
rain 1hr
in
rain 24hr
in
rain mn
in
humidity
%
barometer
mb
20260509215036 42 67 0.0 0.9 0.00 0.00 0.00 85 1019.5
20260509214534 42 67 0.0 0.9 0.00 0.00 0.00 85 1019.6
20260509214037 42 67 0.0 0.9 0.00 0.00 0.00 85 1019.6
20260509213534 42 67 0.0 0.9 0.00 0.00 0.00 84 1019.6
20260509213034 42 67 0.0 0.9 0.00 0.00 0.00 82 1019.7
20260509212533 42 67 0.0 0.9 0.00 0.00 0.00 81 1019.6
20260509212033 42 67 0.0 0.9 0.00 0.00 0.00 81 1019.6
20260509211533 42 67 0.0 0.9 0.00 0.00 0.00 81 1019.6
20260509211033 43 67 0.0 0.9 0.00 0.00 0.00 80 1019.7
20260509210535 43 67 0.0 0.0 0.00 0.00 0.00 80 1019.7
20260509210033 43 67 0.0 0.0 0.00 0.00 0.00 79 1019.8
20260509205531 43 67 0.0 0.0 0.00 0.00 0.00 79 1019.8
20260509205031 43 67 0.0 0.0 0.00 0.00 0.00 77 1019.8
20260509204531 43 67 0.0 0.0 0.00 0.00 0.00 77 1019.9
20260509204031 43 67 0.0 0.0 0.00 0.00 0.00 76 1019.8
20260509203530 44 67 0.0 0.0 0.00 0.00 0.00 76 1019.9
20260509203031 44 67 0.0 0.0 0.00 0.00 0.00 75 1019.9
20260509202531 44 67 0.0 0.0 0.00 0.00 0.00 75 1020.0
20260509202033 44 67 0.0 0.0 0.00 0.00 0.00 75 1020.0
20260509201534 45 67 0.0 0.0 0.00 0.00 0.00 74 1020.0
20260509201033 45 67 0.0 0.9 0.00 0.00 0.00 73 1020.0
20260509200530 45 67 0.0 0.9 0.00 0.00 0.00 73 1020.0
20260509200030 46 67 0.0 0.0 0.00 0.00 0.00 72 1020.1
20260509195530 46 67 0.0 0.0 0.00 0.00 0.00 72 1020.0
20260509195031 47 67 0.0 0.0 0.00 0.00 0.00 71 1020.0
20260509194529 47 67 0.0 0.0 0.00 0.00 0.00 71 1020.0
20260509194029 47 67 0.0 0.0 0.00 0.00 0.00 70 1020.0
20260509193532 48 67 0.0 0.0 0.00 0.00 0.00 69 1020.0
20260509193030 48 67 0.0 0.0 0.00 0.00 0.00 68 1020.0
20260509192530 48 67 0.0 0.0 0.00 0.00 0.00 68 1020.0
20260509192029 49 67 0.0 0.0 0.00 0.00 0.00 67 1019.9
20260509191529 49 67 0.0 0.0 0.00 0.00 0.00 66 1020.0
20260509191028 50 67 0.0 0.0 0.00 0.00 0.00 65 1020.0
20260509190528 50 67 0.0 0.0 0.00 0.00 0.00 65 1019.9
20260509190029 50 67 0.0 0.0 0.00 0.00 0.00 64 1019.9
20260509185528 51 67 0.0 0.9 0.00 0.00 0.00 62 1019.9
20260509185028 51 67 0.0 1.7 0.00 0.00 0.00 62 1019.9
20260509184527 52 67 0.0 0.0 0.00 0.00 0.00 61 1020.0
20260509184027 52 67 0.0 0.0 0.00 0.00 0.00 60 1019.9
20260509183527 52 67 0.0 0.0 0.00 0.00 0.00 59 1019.9
20260509183027 53 67 0.0 0.0 0.00 0.00 0.00 58 1019.9
20260509182526 53 67 0.0 0.0 0.00 0.00 0.00 57 1019.9
20260509182027 53 67 0.0 0.9 0.00 0.00 0.00 56 1019.9
20260509181527 54 67 0.0 0.9 0.00 0.00 0.00 55 1019.9
20260509181027 54 67 0.0 1.7 0.00 0.00 0.00 54 1019.9
20260509180526 55 67 0.0 0.9 0.00 0.00 0.00 52 1019.9
20260509180026 55 67 0.0 0.9 0.00 0.00 0.00 52 1019.9
20260509175526 55 67 0.0 0.9 0.00 0.00 0.00 51 1019.9
20260509175026 55 67 0.0 1.7 0.00 0.00 0.00 52 1019.9
20260509174525 56 67 0.9 1.7 0.00 0.00 0.00 52 1019.9
20260509174025 56 87 0.0 1.7 0.00 0.00 0.00 52 1019.9
20260509173524 56 87 0.0 2.6 0.00 0.00 0.00 51 1020.0
20260509173024 56 67 0.0 3.5 0.00 0.00 0.00 50 1019.9
20260509172524 57 71 0.9 2.6 0.00 0.00 0.00 49 1019.9
20260509172023 57 251 0.0 3.5 0.00 0.00 0.00 50 1020.0
20260509171534 57 49 0.9 3.5 0.00 0.00 0.00 49 1020.1
20260509171022 58 131 0.0 2.6 0.00 0.00 0.00 47 1020.1
20260509170526 58 179 0.0 2.6 0.00 0.00 0.00 48 1020.2
20260509170028 58 93 0.0 2.6 0.00 0.00 0.00 48 1020.1
20260509165521 58 74 0.9 3.5 0.00 0.00 0.00 47 1020.2
20260509165022 58 63 0.0 2.6 0.00 0.00 0.00 47 1020.2
20260509164521 58 93 0.9 2.6 0.00 0.00 0.00 47 1020.2
20260509164022 58 196 0.0 4.3 0.00 0.00 0.00 47 1020.3
20260509163519 58 217 0.0 3.5 0.00 0.00 0.00 45 1020.4
20260509163024 58 207 0.9 3.5 0.00 0.00 0.00 45 1020.4
20260509162518 58 103 0.9 3.5 0.00 0.00 0.00 44 1020.4
20260509162018 58 59 0.9 3.5 0.00 0.00 0.00 44 1020.5
20260509161517 58 26 0.9 5.2 0.00 0.00 0.00 44 1020.5
20260509161017 58 44 0.9 5.2 0.00 0.00 0.00 44 1020.6
20260509160516 58 107 0.9 3.5 0.00 0.00 0.00 44 1020.7
20260509160018 58 67 0.9 4.3 0.00 0.00 0.00 45 1020.7
20260509155515 59 63 0.0 4.3 0.00 0.00 0.00 45 1020.8
20260509155015 58 142 0.9 3.5 0.00 0.00 0.00 44 1020.8
20260509154518 58 123 0.9 3.5 0.00 0.00 0.00 43 1020.8
20260509154014 58 105 0.0 3.5 0.00 0.00 0.00 46 1020.9
20260509153515 58 175 0.9 3.5 0.00 0.00 0.00 45 1021.0
20260509153013 58 70 1.7 5.2 0.00 0.00 0.00 45 1021.0
20260509152512 59 32 1.7 4.3 0.00 0.00 0.00 46 1021.1
20260509152011 59 125 0.9 3.5 0.00 0.00 0.00 46 1021.2
20260509151509 59 148 0.9 3.5 0.00 0.00 0.00 48 1021.3
20260509151009 58 91 0.9 4.3 0.00 0.00 0.00 48 1021.3
20260509150509 58 92 2.6 5.2 0.00 0.00 0.00 45 1021.4
20260509150016 59 169 1.7 4.3 0.00 0.00 0.00 47 1021.5
20260509145511 60 79 0.9 5.2 0.00 0.00 0.00 48 1021.5
20260509145008 59 67 0.9 5.2 0.00 0.00 0.00 46 1021.6
20260509144506 60 63 1.7 5.2 0.00 0.00 0.00 45 1021.6
20260509144009 60 74 0.0 5.2 0.00 0.00 0.00 46 1021.6
20260509143506 60 109 0.9 3.5 0.00 0.00 0.00 46 1021.7
20260509143006 59 62 0.0 4.3 0.00 0.00 0.00 47 1021.7
20260509142505 60 57 1.7 4.3 0.00 0.00 0.00 45 1021.7
20260509142004 60 43 0.9 6.1 0.00 0.00 0.00 46 1021.8
20260509141508 60 72 0.9 6.1 0.00 0.00 0.00 45 1021.9
20260509141004 59 236 0.9 7.0 0.00 0.00 0.00 47 1021.9
20260509140502 59 83 1.7 7.0 0.00 0.00 0.00 47 1022.0
20260509140001 60 169 1.7 7.0 0.00 0.00 0.00 44 1022.0
20260509135501 60 12 0.9 6.1 0.00 0.00 0.00 46 1022.1
20260509135100 60 67 1.7 6.1 0.00 0.00 0.00 45 1022.1
20260509134629 59 133 0.9 4.3 0.00 0.00 0.00 46 1022.2
20260509134103 59 246 1.7 7.8 0.00 0.00 0.00 45 1022.3
20260509133558 59 154 2.6 7.8 0.00 0.00 0.00 46 1022.4
20260509133100 59 117 1.7 5.2 0.00 0.00 0.00 46 1022.5
20260509132557 60 161 0.9 5.2 0.00 0.00 0.00 46 1022.6
20260509132056 60 126 0.9 7.8 0.00 0.00 0.00 46 1022.7
20260509131556 60 95 1.7 7.8 0.00 0.00 0.00 44 1022.8
20260509131054 60 121 0.9 6.1 0.00 0.00 0.00 47 1022.8
20260509130554 59 30 0.9 6.1 0.00 0.00 0.00 46 1022.9
20260509130052 59 111 1.7 6.1 0.00 0.00 0.00 46 1022.9
20260509125553 59 194 0.9 5.2 0.00 0.00 0.00 46 1022.9
20260509125051 59 29 1.7 5.2 0.00 0.00 0.00 45 1022.9
20260509124551 58 325 1.7 7.0 0.00 0.00 0.00 45 1023.1
20260509124051 59 179 1.7 6.1 0.00 0.00 0.00 45 1023.2
20260509123551 59 327 2.6 6.1 0.00 0.00 0.00 46 1023.1
20260509123052 59 98 0.9 7.0 0.00 0.00 0.00 46 1023.1
20260509122549 59 26 0.9 5.2 0.00 0.00 0.00 44 1023.3
20260509122049 59 86 2.6 6.1 0.00 0.00 0.00 44 1023.4
20260509121552 59 188 0.9 5.2 0.00 0.00 0.00 44 1023.4
20260509121049 59 174 1.7 5.2 0.00 0.00 0.00 45 1023.5
20260509120548 59 192 1.7 6.1 0.00 0.00 0.00 44 1023.5
20260509120047 59 11 1.7 6.1 0.00 0.00 0.00 43 1023.5
20260509115546 60 153 1.7 6.1 0.00 0.00 0.00 44 1023.5
20260509115046 59 113 1.7 5.2 0.00 0.00 0.00 43 1023.6
20260509114547 59 40 1.7 5.2 0.00 0.00 0.00 43 1023.6
20260509114045 59 28 1.7 7.0 0.00 0.00 0.00 44 1023.7
20260509113545 58 34 1.7 7.0 0.00 0.00 0.00 46 1023.7
20260509113050 59 142 1.7 6.1 0.00 0.00 0.00 47 1023.7
20260509112542 59 103 1.7 7.0 0.00 0.00 0.00 46 1023.9
20260509112042 59 44 2.6 7.0 0.00 0.00 0.00 45 1023.9
20260509111544 59 74 1.7 6.1 0.00 0.00 0.00 46 1024.0
20260509111043 59 14 1.7 4.3 0.00 0.00 0.00 47 1024.0
20260509110543 59 48 2.6 5.2 0.00 0.00 0.00 46 1024.0
20260509110040 59 94 0.9 4.3 0.00 0.00 0.00 46 1024.1
20260509105540 59 197 1.7 6.1 0.00 0.00 0.00 47 1024.1
20260509105039 59 93 1.7 6.1 0.00 0.00 0.00 47 1024.1
20260509104538 59 69 1.7 4.3 0.00 0.00 0.00 49 1024.1
20260509104037 58 37 0.9 6.1 0.00 0.00 0.00 53 1024.1
20260509103537 58 139 2.6 7.8 0.00 0.00 0.00 48 1024.2
20260509103035 58 203 1.7 7.8 0.00 0.00 0.00 48 1024.2
20260509102535 58 59 0.9 4.3 0.00 0.00 0.00 49 1024.3
20260509102035 58 164 1.7 5.2 0.00 0.00 0.00 49 1024.3
20260509101546 58 111 1.7 5.2 0.00 0.00 0.00 49 1024.3
20260509101033 58 81 0.9 6.1 0.00 0.00 0.00 52 1024.4
20260509100534 59 68 1.7 4.3 0.00 0.00 0.00 49 1024.4
20260509100032 58 5 0.9 3.5 0.00 0.00 0.00 48 1024.4
20260509095532 58 43 0.9 6.1 0.00 0.00 0.00 51 1024.5
20260509095031 57 20 1.7 6.1 0.00 0.00 0.00 51 1024.5
20260509094531 58 19 1.7 5.2 0.00 0.00 0.00 53 1024.5
20260509094030 58 189 1.7 5.2 0.00 0.00 0.00 53 1024.5
20260509093529 58 23 1.7 4.3 0.00 0.00 0.00 53 1024.4
20260509093028 57 333 1.7 5.2 0.00 0.00 0.00 51 1024.4
20260509092527 57 360 1.7 5.2 0.00 0.00 0.00 49 1024.4
20260509092028 57 205 1.7 5.2 0.00 0.00 0.00 51 1024.4
20260509091527 57 55 0.9 5.2 0.00 0.00 0.00 52 1024.3
20260509091026 57 173 1.7 5.2 0.00 0.00 0.00 50 1024.3
20260509090528 57 74 0.9 5.2 0.00 0.00 0.00 51 1024.3
20260509090026 57 92 1.7 4.3 0.00 0.00 0.00 52 1024.3
20260509085523 57 138 0.9 5.2 0.00 0.00 0.00 52 1024.3
20260509085021 56 80 1.7 6.1 0.00 0.00 0.00 54 1024.3
20260509084521 56 194 1.7 5.2 0.00 0.00 0.00 54 1024.4
20260509084021 56 123 1.7 7.0 0.00 0.00 0.00 54 1024.5
20260509083519 56 103 1.7 6.1 0.00 0.00 0.00 52 1024.5
20260509083021 56 95 0.9 6.1 0.00 0.00 0.00 52 1024.6
20260509082518 56 55 0.9 6.1 0.00 0.00 0.00 55 1024.5
20260509082017 55 65 1.7 6.1 0.00 0.00 0.00 54 1024.5
20260509081517 55 200 2.6 5.2 0.00 0.00 0.00 55 1024.6
20260509081019 55 158 1.7 5.2 0.00 0.00 0.00 54 1024.5
20260509080514 55 196 1.7 5.2 0.00 0.00 0.00 53 1024.4
20260509080012 55 171 1.7 7.0 0.00 0.00 0.00 54 1024.5
20260509075512 55 115 1.7 7.0 0.00 0.00 0.00 51 1024.4
20260509075012 55 192 0.9 5.2 0.00 0.00 0.00 56 1024.4
20260509074509 54 34 1.7 5.2 0.00 0.00 0.00 55 1024.3
20260509074008 54 217 2.6 5.2 0.00 0.00 0.00 55 1024.3
20260509073507 54 153 0.0 4.3 0.00 0.00 0.00 55 1024.5
20260509073009 54 193 1.7 4.3 0.00 0.00 0.00 54 1024.5
20260509072506 54 69 0.9 4.3 0.00 0.00 0.00 57 1024.5
20260509072005 53 205 1.7 6.1 0.00 0.00 0.00 55 1024.5
20260509071504 53 192 2.6 6.1 0.00 0.00 0.00 55 1024.5
20260509071003 54 200 2.6 4.3 0.00 0.00 0.00 56 1024.6
20260509070504 53 69 0.9 3.5 0.00 0.00 0.00 56 1024.5
20260509070101 53 146 0.9 8.7 0.00 0.00 0.00 55 1024.5
20260509065604 53 193 0.9 8.7 0.00 0.00 0.00 57 1024.6
20260509065200 53 107 0.9 4.3 0.00 0.00 0.00 57 1024.6
20260509064617 53 154 1.7 4.3 0.00 0.00 0.00 55 1024.5
20260509064058 54 276 0.9 5.2 0.00 0.00 0.00 57 1024.5
20260509063555 53 128 0.9 4.3 0.00 0.00 0.00 58 1024.5
20260509063054 53 152 0.9 6.1 0.00 0.00 0.00 58 1024.5
20260509062554 52 180 1.7 6.1 0.00 0.00 0.00 60 1024.4
20260509062051 52 192 2.6 3.5 0.00 0.00 0.00 59 1024.4
20260509061559 52 182 1.7 4.3 0.00 0.00 0.00 59 1024.3
20260509061048 52 119 0.9 4.3 0.00 0.00 0.00 60 1024.3
20260509060547 51 188 0.9 4.3 0.00 0.00 0.00 62 1024.4
20260509060047 50 184 0.0 4.3 0.00 0.00 0.00 65 1024.3
20260509055544 50 208 0.9 4.3 0.00 0.00 0.00 66 1024.4
20260509055042 49 188 0.9 4.3 0.00 0.00 0.00 70 1024.4
20260509054541 48 117 0.9 4.3 0.00 0.00 0.00 74 1024.4
20260509054040 46 237 0.9 2.6 0.00 0.00 0.00 79 1024.4
20260509053538 44 153 0.9 2.6 0.00 0.00 0.00 86 1024.4
20260509053037 42 182 0.9 2.6 0.00 0.00 0.00 90 1024.5
20260509052534 40 182 0.0 2.6 0.00 0.00 0.00 90 1024.4
20260509052034 40 191 0.0 0.0 0.00 0.00 0.00 91 1024.4
20260509051537 39 191 0.0 0.0 0.00 0.00 0.00 91 1024.4
20260509051034 38 191 0.0 0.0 0.00 0.00 0.00 91 1024.4
20260509050534 37 191 0.0 0.0 0.00 0.00 0.00 91 1024.3
20260509050035 37 191 0.0 0.0 0.00 0.00 0.00 91 1024.4
20260509045532 36 191 0.0 0.0 0.00 0.00 0.00 91 1024.4
20260509045033 36 191 0.0 0.0 0.00 0.00 0.00 90 1024.4
20260509044533 35 191 0.0 0.0 0.00 0.00 0.00 90 1024.4
20260509044031 35 191 0.0 0.0 0.00 0.00 0.00 90 1024.3
20260509043530 35 191 0.0 0.0 0.00 0.00 0.00 89 1024.4
20260509043029 34 191 0.0 0.9 0.00 0.00 0.00 89 1024.4
20260509042529 34 191 0.0 0.9 0.00 0.00 0.00 89 1024.4
20260509042028 34 191 0.0 0.9 0.00 0.00 0.00 89 1024.5
20260509041527 34 191 0.0 0.9 0.00 0.00 0.00 89 1024.5
20260509041028 34 191 0.0 0.9 0.00 0.00 0.00 89 1024.5
20260509040528 34 191 0.0 0.0 0.00 0.00 0.00 88 1024.5
20260509040025 34 191 0.0 0.9 0.00 0.00 0.00 88 1024.5
20260509035528 34 191 0.0 0.9 0.00 0.00 0.00 88 1024.6
20260509035026 35 191 0.0 0.9 0.00 0.00 0.00 87 1024.6
20260509034538 35 191 0.0 0.9 0.00 0.00 0.00 87 1024.6
20260509034024 35 191 0.0 0.9 0.00 0.00 0.00 87 1024.6
20260509033520 35 191 0.0 0.9 0.00 0.00 0.00 87 1024.6
20260509033019 35 191 0.0 0.9 0.00 0.00 0.00 87 1024.6
20260509032518 35 191 0.0 0.9 0.00 0.00 0.00 87 1024.6
20260509032020 36 191 0.0 0.9 0.00 0.00 0.00 86 1024.6
20260509031516 36 191 0.0 0.9 0.00 0.00 0.00 86 1024.6
20260509031015 36 191 0.0 0.9 0.00 0.00 0.00 85 1024.6
20260509030515 36 191 0.0 0.9 0.00 0.00 0.00 85 1024.6
20260509030019 37 191 0.0 0.9 0.00 0.00 0.00 84 1024.6
20260509025514 37 191 0.0 1.7 0.00 0.00 0.00 84 1024.6
20260509025010 38 191 0.0 1.7 0.00 0.00 0.00 83 1024.6
20260509024510 38 191 0.0 0.9 0.00 0.00 0.00 83 1024.6
20260509024011 38 191 0.0 0.9 0.00 0.00 0.00 83 1024.7
20260509023509 39 191 0.0 0.9 0.00 0.00 0.00 82 1024.7
20260509023008 39 191 0.0 0.9 0.00 0.00 0.00 82 1024.8
20260509022507 39 191 0.0 0.9 0.00 0.00 0.00 81 1024.8
20260509022008 40 191 0.0 0.9 0.00 0.00 0.00 79 1024.8
20260509021508 40 191 0.0 0.9 0.00 0.00 0.00 78 1024.8
20260509021010 41 191 0.0 1.7 0.00 0.00 0.00 78 1024.8
20260509020512 41 191 0.0 1.7 0.00 0.00 0.00 77 1024.9
20260509020006 42 191 0.0 3.5 0.00 0.00 0.00 78 1024.8
20260509015507 41 164 0.9 3.5 0.00 0.00 0.00 80 1024.8
20260509015006 41 168 0.0 2.6 0.00 0.00 0.00 81 1024.8
20260509014504 40 223 0.0 2.6 0.00 0.00 0.00 83 1024.9
20260509014004 40 206 0.0 2.6 0.00 0.00 0.00 83 1024.9
20260509013503 39 206 0.0 2.6 0.00 0.00 0.00 85 1024.9
20260509013003 39 213 0.0 1.7 0.00 0.00 0.00 87 1024.9
20260509012504 38 195 0.0 1.7 0.00 0.00 0.00 87 1024.9
20260509012002 38 196 0.0 1.7 0.00 0.00 0.00 87 1024.9
20260509011502 38 196 0.0 1.7 0.00 0.00 0.00 87 1025.0
20260509011002 38 196 0.0 1.7 0.00 0.00 0.00 88 1025.0
20260509010502 38 196 0.0 1.7 0.00 0.00 0.00 87 1025.0
20260509010107 38 196 0.0 1.7 0.00 0.00 0.00 88 1025.0
20260509005603 38 196 0.0 1.7 0.00 0.00 0.00 88 1025.0
20260509005059 38 196 0.0 1.7 0.00 0.00 0.00 88 1025.0
20260509004622 38 196 0.0 0.9 0.00 0.00 0.00 88 1025.0
20260509004058 38 196 0.0 0.9 0.00 0.00 0.00 88 1025.0
20260509003602 38 196 0.0 0.9 0.00 0.00 0.00 88 1025.1
20260509003057 38 196 0.0 0.0 0.00 0.00 0.00 88 1025.1
20260509002556 38 196 0.0 0.0 0.00 0.00 0.00 88 1025.1
20260509002056 38 196 0.0 0.9 0.00 0.00 0.00 87 1025.1
20260509001557 38 196 0.0 0.9 0.00 0.00 0.00 87 1025.1
20260509001055 38 196 0.0 0.0 0.00 0.00 0.00 87 1025.1
20260509000554 39 196 0.0 0.0 0.00 0.00 0.00 87 1025.1
20260509000054 39 196 0.0 0.0 0.00 0.00 0.00 87 1025.1
20260508235553 39 196 0.0 0.0 0.00 0.00 0.00 87 1025.0
20260508235055 39 196 0.0 0.0 0.00 0.00 0.00 87 1025.0
20260508234552 39 196 0.0 0.0 0.00 0.00 0.00 87 1025.1
20260508234054 39 196 0.0 0.0 0.00 0.00 0.00 87 1025.0
20260508233554 40 196 0.0 0.0 0.00 0.00 0.00 87 1025.1
20260508233050 40 196 0.0 0.0 0.00 0.00 0.00 87 1025.0
20260508232549 40 196 0.0 0.0 0.00 0.00 0.00 87 1025.1
20260508232050 40 196 0.0 0.0 0.00 0.00 0.00 87 1025.1
20260508231547 40 196 0.0 0.0 0.00 0.00 0.00 87 1025.1
20260508231047 40 196 0.0 0.0 0.00 0.00 0.00 87 1025.1
20260508230547 40 196 0.0 0.0 0.00 0.00 0.00 87 1025.1
20260508230051 40 196 0.0 0.0 0.00 0.00 0.00 87 1025.0
20260508225546 40 196 0.0 0.0 0.00 0.00 0.00 87 1025.1
20260508225045 41 196 0.0 0.0 0.00 0.00 0.00 86 1025.0
20260508224550 41 196 0.0 0.0 0.00 0.00 0.00 86 1025.0
20260508224043 41 196 0.0 0.0 0.00 0.00 0.00 86 1025.0
20260508223543 41 196 0.0 0.0 0.00 0.00 0.00 86 1025.1
20260508223048 41 196 0.0 0.0 0.00 0.00 0.00 85 1025.0
20260508222540 42 196 0.0 0.0 0.00 0.00 0.00 85 1025.0
20260508222040 42 196 0.0 0.0 0.00 0.00 0.00 85 1024.9
20260508221539 42 196 0.0 0.0 0.00 0.00 0.00 85 1024.9
20260508221039 42 196 0.0 0.9 0.00 0.00 0.00 85 1024.9
20260508220539 42 195 0.0 0.9 0.00 0.00 0.00 85 1024.9
20260508220037 42 196 0.0 0.9 0.00 0.00 0.00 86 1024.9
20260508215537 42 196 0.0 3.5 0.00 0.00 0.00 86 1024.9